Home   Weather   Adak   Past weeks
Flag for USA

Past Weather in Adak, Alaska, USA — Yesterday and Last 2 Weeks

Now
44 °F

Broken clouds.


Feels Like: 37 °F
Forecast: 45 / 41 °F
Wind: 16 mph from Northwest

Location: Adak

Current Time: May 26, 2019 at 6:25:10 pm

Latest Report: May 26, 2019 at 4:56 pm


Visibility: 10 mi

Pressure: 29.52 "Hg

Humidity: 76%

Dew Point: 37 °F

Location of AdakLocation

Past Weather in Adak — Graph

°F

Adak Temperature Yesterday

Maximum temperature yesterday: 45 °F (at 1:10 pm)
Minimum temperature yesterday: 39 °F (at 1:56 am)
Average temperature yesterday: 41 °F

High & Low Weather Summary for the Past Weeks

 TemperatureHumidityPressure
High49 °F (May 13, 2:56 pm)97% (May 22, 11:56 am)30.20 "Hg (May 22, 11:56 am)
Low25 °F (May 13, 6:56 am)52% (May 13, 2:56 pm)29.52 "Hg (May 26, 4:56 pm)
Average41 °F82%29.93 "Hg
* Reported May 11 4:56 pm — May 26 4:56 pm, Adak. Weather by CustomWeather, © 2019

Note: Actual official high and low records may vary slightly from our data, if they occured in-between our weather recording intervals... More about our weather records

Advertising

Adak Weather History for the Previous 24 Hours

Scroll right to see more
 ConditionsComfort  
Time TempWeatherWind HumidityBarometerVisibility
4:56 pm
Sun, May 26
44 °FBroken clouds.16 mph76%29.52 "Hg10 mi
3:56 pm43 °FOvercast.12 mph79%29.53 "Hg10 mi
2:56 pm42 °FOvercast.10 mph85%29.55 "Hg10 mi
1:56 pm41 °FOvercast.9 mph93%29.57 "Hg10 mi
12:56 pm41 °FLow clouds.17 mph93%29.57 "Hg8 mi
11:56 am41 °FLow clouds.15 mph96%29.56 "Hg8 mi
10:56 am42 °FLight rain. Mostly cloudy.14 mph92%29.56 "Hg10 mi
9:56 am42 °FLight rain. Low clouds.18 mph96%29.55 "Hg9 mi
8:56 am42 °FLight rain. Low clouds.13 mph96%29.56 "Hg10 mi
7:56 am42 °FLight rain. Low clouds.13 mph92%29.55 "Hg10 mi
6:56 am42 °FLight rain. Low clouds.16 mph92%29.55 "Hg10 mi
6:21 am41 °FLight rain. Low clouds.13 mph93%29.55 "Hg10 mi
6:04 am41 °FLight rain. Mostly cloudy.15 mph93%29.54 "Hg10 mi
4:56 am41 °FMostly cloudy.14 mph96%29.54 "Hg9 mi
2:56 am41 °FLight rain. Low clouds.13 mph96%29.55 "Hg10 mi
1:56 am41 °FLow clouds.14 mph96%29.56 "Hg10 mi
12:56 am41 °FLow clouds.13 mph93%29.57 "Hg10 mi
11:56 pm
Sat, May 25
41 °FLight rain. Low clouds.10 mph96%29.58 "Hg10 mi
10:56 pm42 °FLight rain. Low clouds.8 mph89%29.58 "Hg10 mi
9:56 pm42 °FLow clouds.8 mph89%29.59 "Hg10 mi
8:56 pm43 °FOvercast.10 mph86%29.59 "Hg10 mi
8:28 pm43 °FMostly cloudy.12 mph87%29.60 "Hg10 mi
7:56 pm43 °FLow clouds.13 mph86%29.61 "Hg10 mi
7:15 pm45 °FLow clouds.14 mph81%29.62 "Hg10 mi
6:56 pm44 °FOvercast.13 mph85%29.62 "Hg10 mi
Weather by CustomWeather, © 2019

See weather overview